|
|
Asteroid 2012 BC14
(Preview)
Orbital elements:
2012 BC14 Earth MOID = 0.0090 AU
Epoch 2012 Mar. 14.0 TT = JDT 2456000.5 MPC
M 72.44780 (2000.0) P Q
n 0.59210180 Peri. 281.33348 +0.88490788 -0.45319477
a 1.4045541 Node 105.69141 +0.45890548 +0.80887905
e 0.4589915 Incl. 6.41006 +0.07964806 +0.37460536
P 1.66 H 24.9 G...
|
Blobrana
|
0
|
|
|
|
|
Asteroid 2012 BA14
(Preview)
Orbital elements:
2012 BA14 Earth MOID = 0.0398 AU
Epoch 2012 Mar. 14.0 TT = JDT 2456000.5 MPC
M 29.47362 (2000.0) P Q
n 0.34687871 Peri. 139.11211 +0.15057636 -0.97520046
a 2.0060925 Node 301.63548 +0.85016945 +0.21147139
e 0.5227948 Incl. 10.98292 +0.50451825 -0.06529869
P 2.84 H 24.7...
|
Blobrana
|
0
|
|
|
|
|
Asteroid 2012 BX13
(Preview)
Orbital elements:
2012 BX13 Earth MOID = 0.2600 AU
Epoch 2012 Mar. 14.0 TT = JDT 2456000.5 MPC
M 347.38320 (2000.0) P Q
n 0.59043842 Peri. 129.42449 -0.20386075 +0.75477888
a 1.4071908 Node 116.97324 -0.96393144 -0.26606092
e 0.6233344 Incl. 44.39505 +0.17110517 -0.59960022
P 1.67 H 20....
|
Blobrana
|
0
|
|
|
|
|
Asteroid 2012 BV13
(Preview)
Orbital elements:
2012 BV13 Earth MOID = 0.0087 AU
Epoch 2012 Mar. 14.0 TT = JDT 2456000.5 MPC
M 300.03723 (2000.0) P Q
n 1.07506479 Peri. 305.80000 -0.46258889 +0.86593792
a 0.9437268 Node 295.57778 -0.73012468 -0.49376731
e 0.1009066 Incl. 12.17081 -0.50292094 -0.07965777
P 0.92 H 22....
|
Blobrana
|
0
|
|
|
|
|
Asteroid 2012 BW13
(Preview)
Orbital elements:
2012 BW13 Earth MOID = 0.0015 AU
Epoch 2012 Mar. 14.0 TT = JDT 2456000.5 MPC
M 4.66115 (2000.0) P Q
n 0.36733019 Peri. 224.15836 -0.99545291 -0.09408054
a 1.9309231 Node 310.43721 +0.09192207 -0.90773059
e 0.5515810 Incl. 1.12261 +0.02497687 -0.40886920
P 2.68 H 27.1 G 0...
|
Blobrana
|
0
|
|
|
|
|
Asteroid 2012 BO11
(Preview)
Orbital elements:
2012 BO11 Earth MOID = 0.0016 AU
Epoch 2012 Mar. 14.0 TT = JDT 2456000.5 MPC
M 62.96345 (2000.0) P Q
n 0.63043196 Peri. 321.21541 +0.45423274 -0.89085289
a 1.3470299 Node 101.76790 +0.81922397 +0.41444805
e 0.3390709 Incl. 0.42911 +0.35006387 +0.18604825
P 1.56 H 25.5 G...
|
Blobrana
|
0
|
|
|
|
|
Asteroid 2012 BF11
(Preview)
Orbital elements:
2012 BF11 Earth MOID = 0.1842 AU
Epoch 2012 Mar. 14.0 TT = JDT 2456000.5 MPC
M 12.45907 (2000.0) P Q
n 0.69259179 Peri. 31.20606 -0.73165666 -0.64048007
a 1.2651766 Node 107.09453 +0.56423846 -0.76112128
e 0.0859282 Incl. 14.13229 +0.38250947 -0.10237028
P 1.42 H 21.8 G...
|
Blobrana
|
0
|
|
|
|
|
Asteroid 2012 BJ11
(Preview)
Orbital elements:
2012 BJ11 Earth MOID = 0.0971 AU
Epoch 2012 Mar. 14.0 TT = JDT 2456000.5 MPC
M 9.07937 (2000.0) P Q
n 0.43498249 Peri. 90.05492 -0.89185013 -0.44531464
a 1.7251288 Node 63.50182 +0.37167876 -0.82145591
e 0.4043901 Incl. 5.08750 +0.25779498 -0.35623737
P 2.27 H 21.9 G 0.1...
|
Blobrana
|
0
|
|
|
|
|
Asteroid 2012 BG11
(Preview)
Orbital elements:
2012 BG11 Earth MOID = 0.0287 AU
Epoch 2012 Mar. 14.0 TT = JDT 2456000.5 MPC
M 9.95235 (2000.0) P Q
n 0.35955861 Peri. 221.17572 -0.86763908 -0.48031912
a 1.9586474 Node 289.68439 +0.48438705 -0.75834399
e 0.5144675 Incl. 7.84005 +0.11212325 -0.44069029
P 2.74 H 22.3 G 0...
|
Blobrana
|
0
|
|
|
|
|
Asteroid 2012 BM11
(Preview)
Orbital elements:
2012 BM11 Earth MOID = 0.0778 AU
Epoch 2012 Mar. 14.0 TT = JDT 2456000.5 MPC
M 28.67923 (2000.0) P Q
n 0.40623615 Peri. 347.74323 -0.26700448 -0.85667029
a 1.8055811 Node 116.28162 +0.92052928 -0.36226411
e 0.4159147 Incl. 29.49034 +0.28519195 +0.36726113
P 2.43 H 23.1...
|
Blobrana
|
0
|
|
|
|
|
Asteroid 2012 BL11
(Preview)
Orbital elements:
2012 BL11 Earth MOID = 0.0765 AU
Epoch 2012 Mar. 14.0 TT = JDT 2456000.5 MPC
M 51.71508 (2000.0) P Q
n 0.71579470 Peri. 164.81207 -0.25256901 -0.95346691
a 1.2376858 Node 299.57365 +0.86684046 -0.14737029
e 0.1467241 Incl. 10.91274 +0.42987964 -0.26302633
P 1.38 H 25.8...
|
Blobrana
|
0
|
|
|
|
|
Asteroid 2012 BB2
(Preview)
Orbital elements:
2012 BB2 Earth MOID = 0.2391 AU
Epoch 2012 Mar. 14.0 TT = JDT 2456000.5 MPC
M 44.73519 (2000.0) P Q
n 0.45438855 Peri. 324.67329 +0.16612435 -0.94944286
a 1.6756544 Node 114.42290 +0.95861294 +0.09214653
e 0.2894958 Incl. 17.01153 +0.23122268 +0.30011210
P 2.17 H 20.6 G...
|
Blobrana
|
0
|
|
|
|
|
Asteroid 2012 BR1
(Preview)
Orbital elements:
2012 BR1 Earth MOID = 0.0566 AU
Epoch 2012 Mar. 14.0 TT = JDT 2456000.5 MPC
M 122.45965 (2000.0) P Q
n 0.89241888 Peri. 76.49551 +0.92642513 -0.25616710
a 1.0684566 Node 297.73771 +0.08433166 +0.85539543
e 0.2635189 Incl. 18.16222 +0.36691233 +0.45019671
P 1.10 H 26.5 G...
|
Blobrana
|
0
|
|
|
|
|
Asteroid 2012 BO1
(Preview)
Orbital elements:
2012 BO1 Earth MOID = 0.1376 AU
Epoch 2012 Mar. 14.0 TT = JDT 2456000.5 MPC
M 19.57428 (2000.0) P Q
n 0.63964148 Peri. 21.29334 -0.75024680 -0.65742000
a 1.3340690 Node 117.40599 +0.59460493 -0.71734079
e 0.1601331 Incl. 4.53568 +0.28909292 -0.23069704
P 1.54 H 24.9 G 0....
|
Blobrana
|
0
|
|
|
|
|
Asteroid 2012 BX1
(Preview)
Orbital elements:
2012 BX1 Earth MOID = 0.0136 AU
Epoch 2012 Mar. 14.0 TT = JDT 2456000.5 MPC
M 95.66926 (2000.0) P Q
n 0.80362561 Peri. 276.33677 +0.80806086 -0.55441218
a 1.1457773 Node 117.50574 +0.58897452 +0.75337053
e 0.3047869 Incl. 12.97591 +0.01211050 +0.35363821
P 1.23 H 24.8 G...
|
Blobrana
|
0
|
|
|